PIMOHWEATHER Station Historical Data
Daily Summary for June 03, 2020 Units:  Metric    English   Both
Daily Weekly Monthly Yearly
  High: Low: Average:
Temperature: 37.0 °C 28.0 °C 31.6 °C
Dew Point: 28.0 °C 25.0 °C 26.6 °C
Humidity: 85% 60% 76%
Wind Speed: 22km/h 0km/h 6.7km/h
Wind Gust: 28km/h - -
Wind- - South
Pressure: 1010.3 hPa 1005.7 hPa -
Precipitation: 0.00 mm    
 
 
Tabular Data for June 03, 2020
Time Temperature Dew Point Pressure Wind Wind Speed Wind Gust Humidity Rainfall Rate (Hourly) solar
00:04 29.0 °C 26.0 °C 1009.9 hPa Calm     81% 0.00 mm 0.00 W/m2
00:09 29.0 °C 25.0 °C 1009.9 hPa Calm   4 km/h 81% 0.00 mm 0.00 W/m2
00:14 29.0 °C 25.0 °C 1010.0 hPa NW 1 km/h 4 km/h 81% 0.00 mm 0.00 W/m2
00:19 29.0 °C 25.0 °C 1009.8 hPa Calm     81% 0.00 mm 0.00 W/m2
00:24 29.0 °C 25.0 °C 1009.6 hPa NNE 5 km/h 8 km/h 82% 0.00 mm 0.00 W/m2
00:29 29.0 °C 25.0 °C 1009.5 hPa Calm     82% 0.00 mm 0.00 W/m2
00:34 29.0 °C 25.0 °C 1009.5 hPa NW 5 km/h 8 km/h 82% 0.00 mm 0.00 W/m2
00:39 29.0 °C 25.0 °C 1009.6 hPa North 4 km/h 8 km/h 82% 0.00 mm 0.00 W/m2
00:44 29.0 °C 25.0 °C 1009.5 hPa Calm     82% 0.00 mm 0.00 W/m2
00:49 29.0 °C 25.0 °C 1009.5 hPa NNE 3 km/h 8 km/h 82% 0.00 mm 0.00 W/m2
00:54 29.0 °C 25.0 °C 1009.4 hPa NNE 1 km/h 4 km/h 82% 0.00 mm 0.00 W/m2
00:59 29.0 °C 25.0 °C 1009.4 hPa Calm     82% 0.00 mm 0.00 W/m2
01:04 29.0 °C 26.0 °C 1009.3 hPa Calm     82% 0.00 mm 0.00 W/m2
01:09 29.0 °C 25.0 °C 1009.4 hPa Calm     82% 0.00 mm 0.00 W/m2
01:14 29.0 °C 25.0 °C 1009.2 hPa Calm     83% 0.00 mm 0.00 W/m2
01:19 29.0 °C 25.0 °C 1009.3 hPa Calm     83% 0.00 mm 0.00 W/m2
01:24 29.0 °C 25.0 °C 1009.3 hPa Calm     82% 0.00 mm 0.00 W/m2
01:29 29.0 °C 25.0 °C 1009.1 hPa Calm     83% 0.00 mm 0.00 W/m2
01:34 29.0 °C 25.0 °C 1009.1 hPa Calm     83% 0.00 mm 0.00 W/m2
01:39 29.0 °C 25.0 °C 1009.0 hPa NNE 1 km/h 4 km/h 83% 0.00 mm 0.00 W/m2
01:44 29.0 °C 25.0 °C 1009.1 hPa NNE 3 km/h 4 km/h 83% 0.00 mm 0.00 W/m2
01:49 29.0 °C 25.0 °C 1009.0 hPa Calm     83% 0.00 mm 0.00 W/m2
01:54 29.0 °C 25.0 °C 1008.8 hPa Calm     83% 0.00 mm 0.00 W/m2
01:59 28.0 °C 25.0 °C 1008.8 hPa Calm     83% 0.00 mm 0.00 W/m2
02:04 28.0 °C 25.0 °C 1008.9 hPa Calm     84% 0.00 mm 0.00 W/m2
02:09 28.0 °C 25.0 °C 1008.8 hPa Calm     84% 0.00 mm 0.00 W/m2
02:14 28.0 °C 25.0 °C 1008.7 hPa Calm     84% 0.00 mm 0.00 W/m2
02:19 28.0 °C 25.0 °C 1008.7 hPa Calm     84% 0.00 mm 0.00 W/m2
02:24 28.0 °C 25.0 °C 1008.6 hPa Calm     84% 0.00 mm 0.00 W/m2
02:29 28.0 °C 25.0 °C 1008.6 hPa Calm     84% 0.00 mm 0.00 W/m2
02:34 28.0 °C 25.0 °C 1008.6 hPa Calm     84% 0.00 mm 0.00 W/m2
02:39 28.0 °C 25.0 °C 1008.7 hPa Calm     85% 0.00 mm 0.00 W/m2
02:44 28.0 °C 25.0 °C 1008.7 hPa Calm     84% 0.00 mm 0.00 W/m2
02:49 28.0 °C 25.0 °C 1008.7 hPa Calm     84% 0.00 mm 0.00 W/m2
02:54 28.0 °C 25.0 °C 1008.5 hPa Calm     84% 0.00 mm 0.00 W/m2
02:59 28.0 °C 25.0 °C 1008.5 hPa Calm     84% 0.00 mm 0.00 W/m2
03:04 28.0 °C 25.0 °C 1008.6 hPa Calm     84% 0.00 mm 0.00 W/m2
03:09 28.0 °C 25.0 °C 1008.6 hPa Calm     84% 0.00 mm 0.00 W/m2
03:14 28.0 °C 25.0 °C 1008.7 hPa Calm     84% 0.00 mm 0.00 W/m2
03:19 28.0 °C 25.0 °C 1008.5 hPa Calm     84% 0.00 mm 0.00 W/m2
03:24 28.0 °C 25.0 °C 1008.6 hPa Calm     84% 0.00 mm 0.00 W/m2
03:29 28.0 °C 25.0 °C 1008.7 hPa Calm     84% 0.00 mm 0.00 W/m2
03:34 28.0 °C 25.0 °C 1008.7 hPa Calm     84% 0.00 mm 0.00 W/m2
03:39 28.0 °C 25.0 °C 1008.7 hPa Calm     84% 0.00 mm 0.00 W/m2
03:44 28.0 °C 26.0 °C 1008.6 hPa Calm     84% 0.00 mm 0.00 W/m2
03:49 28.0 °C 25.0 °C 1008.7 hPa Calm     83% 0.00 mm 0.00 W/m2
03:54 28.0 °C 25.0 °C 1008.6 hPa Calm     83% 0.00 mm 0.00 W/m2
03:59 28.0 °C 25.0 °C 1008.6 hPa Calm     84% 0.00 mm 0.00 W/m2
04:04 28.0 °C 25.0 °C 1008.6 hPa Calm     84% 0.00 mm 0.00 W/m2
04:09 28.0 °C 25.0 °C 1008.6 hPa Calm     84% 0.00 mm 0.00 W/m2
04:14 28.0 °C 25.0 °C 1008.5 hPa Calm     84% 0.00 mm 0.00 W/m2
04:18 28.0 °C 25.0 °C 1008.4 hPa Calm     84% 0.00 mm 0.00 W/m2
04:24 28.0 °C 25.0 °C 1008.5 hPa Calm     84% 0.00 mm 0.00 W/m2
04:29 28.0 °C 25.0 °C 1008.5 hPa Calm     84% 0.00 mm 0.00 W/m2
04:34 28.0 °C 25.0 °C 1008.7 hPa Calm     84% 0.00 mm 0.00 W/m2
04:39 28.0 °C 25.0 °C 1008.5 hPa Calm   4 km/h 84% 0.00 mm 0.00 W/m2
04:44 28.0 °C 25.0 °C 1008.7 hPa Calm     84% 0.00 mm 0.00 W/m2
04:49 28.0 °C 25.0 °C 1008.7 hPa Calm     84% 0.00 mm 0.00 W/m2
04:54 28.0 °C 25.0 °C 1008.7 hPa Calm     84% 0.00 mm 0.00 W/m2
04:59 28.0 °C 26.0 °C 1008.7 hPa Calm     84% 0.00 mm 0.00 W/m2
05:04 28.0 °C 25.0 °C 1008.7 hPa Calm   4 km/h 84% 0.00 mm 0.00 W/m2
05:09 28.0 °C 26.0 °C 1008.7 hPa Calm     84% 0.00 mm 0.00 W/m2
05:14 28.0 °C 25.0 °C 1008.8 hPa Calm     84% 0.00 mm 0.00 W/m2
05:19 28.0 °C 25.0 °C 1008.8 hPa Calm     84% 0.00 mm 0.07 W/m2
05:24 28.0 °C 26.0 °C 1008.7 hPa Calm     85% 0.00 mm 2.41 W/m2
05:29 28.0 °C 25.0 °C 1008.9 hPa Calm     85% 0.00 mm 5.29 W/m2
05:34 28.0 °C 26.0 °C 1008.9 hPa Calm   4 km/h 85% 0.00 mm 11.14 W/m2
05:39 28.0 °C 26.0 °C 1009.0 hPa Calm     85% 0.00 mm 21.16 W/m2
05:44 28.0 °C 26.0 °C 1008.9 hPa Calm     85% 0.00 mm 30.65 W/m2
05:49 28.0 °C 25.0 °C 1009.1 hPa Calm     84% 0.00 mm 35.88 W/m2
05:54 28.0 °C 26.0 °C 1009.1 hPa Calm     84% 0.00 mm 43.97 W/m2
05:59 29.0 °C 26.0 °C 1009.2 hPa Calm     84% 0.00 mm 56.90 W/m2
06:04 29.0 °C 26.0 °C 1009.2 hPa Calm     84% 0.00 mm 61.78 W/m2
06:09 29.0 °C 26.0 °C 1009.3 hPa Calm     84% 0.00 mm 68.18 W/m2
06:14 29.0 °C 26.0 °C 1009.5 hPa Calm     83% 0.00 mm 75.83 W/m2
06:19 29.0 °C 26.0 °C 1009.5 hPa Calm     83% 0.00 mm 132.07 W/m2
06:24 29.0 °C 26.0 °C 1009.5 hPa SE 5 km/h 8 km/h 82% 0.00 mm 133.49 W/m2
06:29 30.0 °C 26.0 °C 1009.5 hPa Calm     81% 0.00 mm 174.79 W/m2
06:34 30.0 °C 26.0 °C 1009.6 hPa Calm     80% 0.00 mm 182.15 W/m2
06:39 31.0 °C 26.0 °C 1009.6 hPa Calm   4 km/h 79% 0.00 mm 192.53 W/m2
06:44 31.0 °C 26.0 °C 1009.6 hPa Calm     78% 0.00 mm 213.40 W/m2
06:49 31.0 °C 27.0 °C 1009.7 hPa Calm     77% 0.00 mm 223.31 W/m2
06:54 31.0 °C 27.0 °C 1009.7 hPa East 5 km/h 8 km/h 78% 0.00 mm 241.49 W/m2
06:59 32.0 °C 27.0 °C 1009.6 hPa Calm   4 km/h 78% 0.00 mm 242.59 W/m2
07:04 31.0 °C 27.0 °C 1009.6 hPa East 5 km/h 8 km/h 78% 0.00 mm 252.37 W/m2
07:09 31.0 °C 27.0 °C 1009.8 hPa SE 6 km/h 8 km/h 80% 0.00 mm 255.82 W/m2
07:14 31.0 °C 27.0 °C 1009.8 hPa Calm     80% 0.00 mm 285.90 W/m2
07:19 32.0 °C 27.0 °C 1009.7 hPa SSE 4 km/h 8 km/h 78% 0.00 mm 298.59 W/m2
07:24 31.0 °C 27.0 °C 1010.0 hPa Calm     78% 0.00 mm 279.26 W/m2
07:29 31.0 °C 27.0 °C 1010.0 hPa ESE 6 km/h 8 km/h 77% 0.00 mm 241.02 W/m2
07:34 32.0 °C 27.0 °C 1010.0 hPa Calm     77% 0.00 mm 308.50 W/m2
07:39 32.0 °C 27.0 °C 1009.9 hPa SE 5 km/h 8 km/h 75% 0.00 mm 315.11 W/m2
07:44 33.0 °C 27.0 °C 1010.0 hPa NNE 4 km/h 8 km/h 74% 0.00 mm 356.19 W/m2
07:49 33.0 °C 27.0 °C 1010.0 hPa East 1 km/h 4 km/h 73% 0.00 mm 373.07 W/m2
07:54 33.0 °C 27.0 °C 1009.9 hPa Calm     74% 0.00 mm 214.18 W/m2
07:59 32.0 °C 27.0 °C 1010.1 hPa Calm     76% 0.00 mm 263.80 W/m2
08:04 33.0 °C 27.0 °C 1010.0 hPa Calm     76% 0.00 mm 418.80 W/m2
08:09 33.0 °C 27.0 °C 1010.2 hPa Calm     73% 0.00 mm 409.11 W/m2
08:14 33.0 °C 28.0 °C 1010.1 hPa South 5 km/h 8 km/h 76% 0.00 mm 273.22 W/m2
08:19 32.0 °C 28.0 °C 1010.2 hPa South 8 km/h 8 km/h 78% 0.00 mm 194.95 W/m2
08:24 32.0 °C 28.0 °C 1010.1 hPa South 7 km/h 8 km/h 79% 0.00 mm 124.44 W/m2
08:29 31.0 °C 27.0 °C 1010.1 hPa SSE 7 km/h 12 km/h 80% 0.00 mm 119.37 W/m2
08:34 31.0 °C 27.0 °C 1010.2 hPa South 1 km/h 4 km/h 80% 0.00 mm 96.91 W/m2
08:39 31.0 °C 27.0 °C 1010.2 hPa SSW 1 km/h 4 km/h 79% 0.00 mm 117.07 W/m2
08:44 31.0 °C 27.0 °C 1010.3 hPa South 4 km/h 4 km/h 79% 0.00 mm 130.75 W/m2
08:49 31.0 °C 27.0 °C 1010.3 hPa South 4 km/h 8 km/h 80% 0.00 mm 135.62 W/m2
08:54 31.0 °C 27.0 °C 1010.1 hPa South 5 km/h 8 km/h 80% 0.00 mm 155.00 W/m2
08:59 31.0 °C 27.0 °C 1010.3 hPa WSW 1 km/h 4 km/h 79% 0.00 mm 148.61 W/m2
09:04 31.0 °C 27.0 °C 1010.3 hPa SSW 5 km/h 8 km/h 79% 0.00 mm 392.01 W/m2
09:09 32.0 °C 27.0 °C 1010.3 hPa South 4 km/h 4 km/h 79% 0.00 mm 443.02 W/m2
09:14 32.0 °C 27.0 °C 1010.2 hPa SW 4 km/h 8 km/h 75% 0.00 mm 437.45 W/m2
09:19 32.0 °C 27.0 °C 1010.2 hPa South 10 km/h 12 km/h 76% 0.00 mm 191.79 W/m2
09:24 32.0 °C 27.0 °C 1010.2 hPa SSE 7 km/h 8 km/h 77% 0.00 mm 182.23 W/m2
09:29 32.0 °C 27.0 °C 1010.1 hPa SSE 6 km/h 8 km/h 76% 0.00 mm 230.57 W/m2
09:34 32.0 °C 27.0 °C 1010.0 hPa SSE 10 km/h 16 km/h 76% 0.00 mm 418.63 W/m2
09:39 33.0 °C 27.0 °C 1009.9 hPa South 9 km/h 12 km/h 71% 0.00 mm 416.94 W/m2
09:44 33.0 °C 27.0 °C 1009.9 hPa South 6 km/h 8 km/h 69% 0.00 mm 365.00 W/m2
09:49 33.0 °C 27.0 °C 1009.8 hPa SSE 8 km/h 8 km/h 70% 0.00 mm 461.28 W/m2
09:54 33.0 °C 27.0 °C 1009.8 hPa SE 7 km/h 8 km/h 70% 0.00 mm 452.49 W/m2
09:59 33.0 °C 27.0 °C 1009.7 hPa SSE 8 km/h 8 km/h 72% 0.00 mm 467.17 W/m2
10:04 33.0 °C 27.0 °C 1009.7 hPa Calm   4 km/h 71% 0.00 mm 278.97 W/m2
10:09 33.0 °C 27.0 °C 1009.5 hPa SSE 8 km/h 12 km/h 71% 0.00 mm 280.59 W/m2
10:14 33.0 °C 27.0 °C 1009.7 hPa South 7 km/h 12 km/h 71% 0.00 mm 310.58 W/m2
10:19 33.0 °C 27.0 °C 1009.7 hPa SSW 5 km/h 8 km/h 71% 0.00 mm 396.17 W/m2
10:24 33.0 °C 27.0 °C 1009.5 hPa SSE 13 km/h 16 km/h 71% 0.00 mm 433.33 W/m2
10:29 34.0 °C 27.0 °C 1009.6 hPa SE 10 km/h 12 km/h 70% 0.00 mm 437.59 W/m2
10:34 34.0 °C 27.0 °C 1009.4 hPa SSW 10 km/h 12 km/h 69% 0.00 mm 397.07 W/m2
10:39 34.0 °C 27.0 °C 1009.5 hPa South 10 km/h 12 km/h 70% 0.00 mm 364.95 W/m2
10:44 33.0 °C 27.0 °C 1009.5 hPa South 10 km/h 12 km/h 70% 0.00 mm 448.31 W/m2
10:49 33.0 °C 27.0 °C 1009.4 hPa South 10 km/h 12 km/h 68% 0.00 mm 476.42 W/m2
10:54 33.0 °C 27.0 °C 1009.4 hPa SSW 8 km/h 12 km/h 68% 0.00 mm 399.30 W/m2
10:59 34.0 °C 26.0 °C 1009.4 hPa South 10 km/h 12 km/h 67% 0.00 mm 477.11 W/m2
11:04 34.0 °C 27.0 °C 1009.1 hPa South 11 km/h 16 km/h 67% 0.00 mm 510.97 W/m2
11:09 34.0 °C 27.0 °C 1008.9 hPa South 10 km/h 12 km/h 68% 0.00 mm 508.03 W/m2
11:14 34.0 °C 27.0 °C 1008.9 hPa SSW 11 km/h 16 km/h 68% 0.00 mm 511.85 W/m2
11:19 34.0 °C 27.0 °C 1008.8 hPa SSW 10 km/h 16 km/h 66% 0.00 mm 508.84 W/m2
11:24 35.0 °C 27.0 °C 1008.8 hPa ESE 9 km/h 16 km/h 65% 0.00 mm 495.14 W/m2
11:29 35.0 °C 27.0 °C 1008.8 hPa SW 9 km/h 12 km/h 66% 0.00 mm 531.06 W/m2
11:34 35.0 °C 27.0 °C 1008.7 hPa South 9 km/h 12 km/h 65% 0.00 mm 536.17 W/m2
11:39 34.0 °C 27.0 °C 1008.7 hPa South 11 km/h 16 km/h 65% 0.00 mm 542.21 W/m2
11:44 35.0 °C 27.0 °C 1008.6 hPa South 10 km/h 12 km/h 66% 0.00 mm 550.68 W/m2
11:49 35.0 °C 27.0 °C 1008.6 hPa West 10 km/h 12 km/h 66% 0.00 mm 530.30 W/m2
11:54 35.0 °C 27.0 °C 1008.4 hPa NW 16 km/h 20 km/h 66% 0.00 mm 543.05 W/m2
11:59 35.0 °C 27.0 °C 1008.4 hPa WSW 10 km/h 12 km/h 66% 0.00 mm 528.07 W/m2
12:04 35.0 °C 27.0 °C 1008.3 hPa SSW 11 km/h 12 km/h 64% 0.00 mm 542.34 W/m2
12:09 35.0 °C 27.0 °C 1008.3 hPa SSW 10 km/h 12 km/h 64% 0.00 mm 546.20 W/m2
12:14 35.0 °C 27.0 °C 1008.2 hPa SW 11 km/h 16 km/h 64% 0.00 mm 544.93 W/m2
12:19 35.0 °C 27.0 °C 1008.1 hPa WSW 10 km/h 16 km/h 65% 0.00 mm 551.46 W/m2
12:24 35.0 °C 27.0 °C 1008.1 hPa West 12 km/h 12 km/h 65% 0.00 mm 563.40 W/m2
12:29 35.0 °C 27.0 °C 1008.1 hPa NW 15 km/h 16 km/h 65% 0.00 mm 532.62 W/m2
12:34 35.0 °C 27.0 °C 1007.9 hPa WNW 14 km/h 20 km/h 66% 0.00 mm 528.88 W/m2
12:39 35.0 °C 27.0 °C 1008.0 hPa SSE 4 km/h 8 km/h 63% 0.00 mm 549.58 W/m2
12:44 36.0 °C 27.0 °C 1007.9 hPa SSW 11 km/h 12 km/h 62% 0.00 mm 522.42 W/m2
12:49 35.0 °C 27.0 °C 1007.7 hPa NNW 14 km/h 16 km/h 64% 0.00 mm 535.80 W/m2
12:54 35.0 °C 27.0 °C 1007.7 hPa NW 15 km/h 20 km/h 65% 0.00 mm 535.63 W/m2
12:59 35.0 °C 27.0 °C 1007.6 hPa NW 14 km/h 16 km/h 66% 0.00 mm 525.67 W/m2
13:04 36.0 °C 27.0 °C 1007.5 hPa WNW 10 km/h 16 km/h 63% 0.00 mm 524.50 W/m2
13:09 36.0 °C 27.0 °C 1007.5 hPa WSW 9 km/h 12 km/h 62% 0.00 mm 537.96 W/m2
13:14 36.0 °C 27.0 °C 1007.4 hPa NNW 15 km/h 16 km/h 62% 0.00 mm 535.31 W/m2
13:19 36.0 °C 27.0 °C 1007.4 hPa West 10 km/h 12 km/h 63% 0.00 mm 523.13 W/m2
13:24 35.0 °C 27.0 °C 1007.4 hPa SW 10 km/h 12 km/h 62% 0.00 mm 526.78 W/m2
13:29 36.0 °C 27.0 °C 1007.2 hPa WNW 13 km/h 16 km/h 62% 0.00 mm 523.62 W/m2
13:34 36.0 °C 27.0 °C 1007.2 hPa SSW 15 km/h 16 km/h 63% 0.00 mm 522.59 W/m2
13:39 36.0 °C 27.0 °C 1007.1 hPa South 12 km/h 16 km/h 62% 0.00 mm 518.58 W/m2
13:44 36.0 °C 27.0 °C 1007.0 hPa SSW 11 km/h 16 km/h 63% 0.00 mm 517.33 W/m2
13:49 36.0 °C 28.0 °C 1006.9 hPa WNW 8 km/h 12 km/h 62% 0.00 mm 519.34 W/m2
13:54 36.0 °C 27.0 °C 1006.8 hPa WSW 10 km/h 16 km/h 62% 0.00 mm 519.36 W/m2
13:59 36.0 °C 27.0 °C 1006.8 hPa NW 10 km/h 16 km/h 63% 0.00 mm 515.37 W/m2
14:04 36.0 °C 28.0 °C 1006.7 hPa West 10 km/h 20 km/h 63% 0.00 mm 518.90 W/m2
14:09 36.0 °C 28.0 °C 1006.7 hPa SSW 10 km/h 16 km/h 62% 0.00 mm 510.90 W/m2
14:14 36.0 °C 28.0 °C 1006.6 hPa South 10 km/h 16 km/h 61% 0.00 mm 521.49 W/m2
14:19 37.0 °C 28.0 °C 1006.6 hPa SSW 8 km/h 12 km/h 62% 0.00 mm 520.88 W/m2
14:24 36.0 °C 28.0 °C 1006.5 hPa West 19 km/h 20 km/h 64% 0.00 mm 504.88 W/m2
14:29 36.0 °C 27.0 °C 1006.4 hPa West 8 km/h 12 km/h 63% 0.00 mm 501.40 W/m2
14:34 36.0 °C 28.0 °C 1006.5 hPa SW 6 km/h 8 km/h 61% 0.00 mm 507.25 W/m2
14:39 36.0 °C 28.0 °C 1006.3 hPa South 13 km/h 16 km/h 62% 0.00 mm 495.04 W/m2
14:44 36.0 °C 27.0 °C 1006.3 hPa WSW 9 km/h 16 km/h 62% 0.00 mm 488.88 W/m2
14:49 36.0 °C 27.0 °C 1006.1 hPa SW 10 km/h 16 km/h 61% 0.00 mm 471.55 W/m2
14:54 37.0 °C 27.0 °C 1006.1 hPa SSE 10 km/h 16 km/h 61% 0.00 mm 481.24 W/m2
14:59 36.0 °C 27.0 °C 1006.1 hPa South 7 km/h 12 km/h 60% 0.00 mm 477.94 W/m2
15:04 36.0 °C 27.0 °C 1006.1 hPa SW 10 km/h 16 km/h 61% 0.00 mm 457.70 W/m2
15:09 36.0 °C 27.0 °C 1006.0 hPa NNW 9 km/h 12 km/h 60% 0.00 mm 443.68 W/m2
15:14 36.0 °C 27.0 °C 1005.9 hPa South 10 km/h 12 km/h 61% 0.00 mm 439.52 W/m2
15:19 36.0 °C 27.0 °C 1005.9 hPa South 10 km/h 16 km/h 61% 0.00 mm 444.57 W/m2
15:24 36.0 °C 27.0 °C 1005.7 hPa SSW 17 km/h 20 km/h 62% 0.00 mm 438.03 W/m2
15:29 35.0 °C 27.0 °C 1005.7 hPa South 15 km/h 20 km/h 63% 0.00 mm 432.21 W/m2
15:34 35.0 °C 27.0 °C 1005.7 hPa South 18 km/h 20 km/h 64% 0.00 mm 422.30 W/m2
15:39 35.0 °C 27.0 °C 1005.7 hPa SSW 20 km/h 24 km/h 65% 0.00 mm 418.31 W/m2
15:44 35.0 °C 27.0 °C 1005.9 hPa South 15 km/h 24 km/h 65% 0.00 mm 396.44 W/m2
15:49 35.0 °C 28.0 °C 1005.7 hPa SSW 18 km/h 20 km/h 67% 0.00 mm 380.27 W/m2
15:54 34.0 °C 28.0 °C 1005.8 hPa South 14 km/h 20 km/h 68% 0.00 mm 376.77 W/m2
15:59 34.0 °C 28.0 °C 1005.7 hPa South 18 km/h 20 km/h 70% 0.00 mm 357.63 W/m2
16:04 34.0 °C 28.0 °C 1005.7 hPa South 12 km/h 16 km/h 69% 0.00 mm 351.69 W/m2
16:09 34.0 °C 28.0 °C 1005.7 hPa SW 13 km/h 20 km/h 69% 0.00 mm 344.42 W/m2
16:14 34.0 °C 28.0 °C 1006.1 hPa South 14 km/h 16 km/h 70% 0.00 mm 335.22 W/m2
16:19 34.0 °C 28.0 °C 1005.9 hPa South 14 km/h 16 km/h 70% 0.00 mm 322.30 W/m2
16:24 34.0 °C 28.0 °C 1005.9 hPa SSW 14 km/h 20 km/h 72% 0.00 mm 304.83 W/m2
16:28 34.0 °C 28.0 °C 1006.1 hPa South 11 km/h 16 km/h 70% 0.00 mm 303.54 W/m2
16:34 34.0 °C 28.0 °C 1006.2 hPa SSW 6 km/h 12 km/h 70% 0.00 mm 266.10 W/m2
16:39 34.0 °C 28.0 °C 1005.9 hPa South 17 km/h 20 km/h 72% 0.00 mm 279.19 W/m2
16:44 34.0 °C 28.0 °C 1006.1 hPa SSE 19 km/h 24 km/h 72% 0.00 mm 266.54 W/m2
16:49 34.0 °C 28.0 °C 1005.9 hPa South 10 km/h 12 km/h 72% 0.00 mm 249.54 W/m2
16:54 34.0 °C 28.0 °C 1006.1 hPa SSE 14 km/h 16 km/h 72% 0.00 mm 239.43 W/m2
16:59 33.0 °C 28.0 °C 1006.4 hPa South 12 km/h 16 km/h 74% 0.00 mm 235.35 W/m2
17:04 33.0 °C 28.0 °C 1006.3 hPa SSW 18 km/h 20 km/h 74% 0.00 mm 234.51 W/m2
17:09 33.0 °C 28.0 °C 1006.3 hPa SSW 22 km/h 28 km/h 74% 0.00 mm 192.48 W/m2
17:14 33.0 °C 28.0 °C 1006.2 hPa SSW 17 km/h 20 km/h 74% 0.00 mm 189.22 W/m2
17:19 33.0 °C 28.0 °C 1006.5 hPa South 20 km/h 24 km/h 74% 0.00 mm 170.78 W/m2
17:24 33.0 °C 28.0 °C 1006.7 hPa South 20 km/h 24 km/h 74% 0.00 mm 159.82 W/m2
17:29 33.0 °C 28.0 °C 1006.7 hPa SSE 14 km/h 20 km/h 74% 0.00 mm 139.65 W/m2
17:34 33.0 °C 28.0 °C 1006.7 hPa SSW 18 km/h 28 km/h 74% 0.00 mm 125.41 W/m2
17:39 33.0 °C 28.0 °C 1006.7 hPa SSW 14 km/h 16 km/h 75% 0.00 mm 103.69 W/m2
17:44 33.0 °C 27.0 °C 1006.6 hPa SW 10 km/h 12 km/h 73% 0.00 mm 103.76 W/m2
17:49 33.0 °C 28.0 °C 1006.5 hPa South 12 km/h 16 km/h 75% 0.00 mm 89.64 W/m2
17:54 32.0 °C 27.0 °C 1006.6 hPa South 12 km/h 16 km/h 75% 0.00 mm 63.21 W/m2
17:59 32.0 °C 27.0 °C 1006.6 hPa SSE 17 km/h 20 km/h 74% 0.00 mm 32.02 W/m2
18:04 32.0 °C 27.0 °C 1006.8 hPa SSW 15 km/h 20 km/h 75% 0.00 mm 14.19 W/m2
18:09 32.0 °C 27.0 °C 1006.9 hPa SSE 11 km/h 16 km/h 76% 0.00 mm 9.66 W/m2
18:14 32.0 °C 27.0 °C 1006.8 hPa South 11 km/h 16 km/h 76% 0.00 mm 9.33 W/m2
18:19 32.0 °C 27.0 °C 1007.0 hPa South 10 km/h 12 km/h 77% 0.00 mm 4.05 W/m2
18:24 32.0 °C 28.0 °C 1007.1 hPa SSE 9 km/h 12 km/h 78% 0.00 mm 0.51 W/m2
18:29 32.0 °C 27.0 °C 1007.2 hPa SSW 11 km/h 16 km/h 78% 0.00 mm 0.00 W/m2
18:34 32.0 °C 28.0 °C 1007.3 hPa SSE 9 km/h 12 km/h 79% 0.00 mm 0.00 W/m2
18:39 32.0 °C 28.0 °C 1007.1 hPa South 13 km/h 16 km/h 79% 0.00 mm 0.00 W/m2
18:44 32.0 °C 28.0 °C 1007.2 hPa South 15 km/h 20 km/h 79% 0.00 mm 0.00 W/m2
18:49 31.0 °C 27.0 °C 1007.5 hPa South 10 km/h 16 km/h 79% 0.00 mm 0.00 W/m2
18:54 31.0 °C 27.0 °C 1007.6 hPa South 10 km/h 12 km/h 78% 0.00 mm 0.00 W/m2
18:59 32.0 °C 27.0 °C 1007.7 hPa South 10 km/h 12 km/h 77% 0.00 mm 0.00 W/m2
19:04 32.0 °C 27.0 °C 1007.9 hPa SSE 10 km/h 16 km/h 76% 0.00 mm 0.00 W/m2
19:09 32.0 °C 27.0 °C 1007.9 hPa South 9 km/h 12 km/h 76% 0.00 mm 0.00 W/m2
19:14 31.0 °C 27.0 °C 1007.8 hPa South 10 km/h 16 km/h 76% 0.00 mm 0.00 W/m2
19:19 31.0 °C 27.0 °C 1008.0 hPa South 14 km/h 16 km/h 76% 0.00 mm 0.00 W/m2
19:24 31.0 °C 27.0 °C 1008.0 hPa South 9 km/h 12 km/h 76% 0.00 mm 0.00 W/m2
19:29 31.0 °C 27.0 °C 1008.1 hPa SSE 9 km/h 12 km/h 77% 0.00 mm 0.00 W/m2
19:34 31.0 °C 27.0 °C 1008.2 hPa South 17 km/h 20 km/h 77% 0.00 mm 0.00 W/m2
19:39 31.0 °C 27.0 °C 1008.4 hPa South 12 km/h 16 km/h 77% 0.00 mm 0.00 W/m2
19:44 31.0 °C 27.0 °C 1008.4 hPa South 8 km/h 12 km/h 77% 0.00 mm 0.00 W/m2
19:49 31.0 °C 27.0 °C 1008.4 hPa SSW 9 km/h 12 km/h 76% 0.00 mm 0.00 W/m2
19:54 31.0 °C 27.0 °C 1008.6 hPa South 12 km/h 16 km/h 76% 0.00 mm 0.00 W/m2
19:59 31.0 °C 27.0 °C 1008.5 hPa SSE 13 km/h 16 km/h 77% 0.00 mm 0.00 W/m2
20:04 31.0 °C 27.0 °C 1008.8 hPa SSE 9 km/h 12 km/h 77% 0.00 mm 0.00 W/m2
20:09 31.0 °C 27.0 °C 1009.0 hPa South 10 km/h 16 km/h 79% 0.00 mm 0.00 W/m2
20:14 31.0 °C 27.0 °C 1008.9 hPa SSE 11 km/h 12 km/h 79% 0.00 mm 0.00 W/m2
20:19 31.0 °C 27.0 °C 1008.9 hPa South 12 km/h 16 km/h 79% 0.00 mm 0.00 W/m2
20:24 31.0 °C 27.0 °C 1009.0 hPa SSW 8 km/h 12 km/h 79% 0.00 mm 0.00 W/m2
20:29 31.0 °C 27.0 °C 1009.0 hPa South 14 km/h 16 km/h 80% 0.00 mm 0.00 W/m2
20:34 31.0 °C 27.0 °C 1009.0 hPa SSE 11 km/h 16 km/h 80% 0.00 mm 0.00 W/m2
20:39 31.0 °C 27.0 °C 1009.0 hPa South 10 km/h 16 km/h 80% 0.00 mm 0.00 W/m2
20:44 31.0 °C 27.0 °C 1009.1 hPa South 10 km/h 12 km/h 79% 0.00 mm 0.00 W/m2
20:49 31.0 °C 27.0 °C 1009.1 hPa SSE 11 km/h 16 km/h 80% 0.00 mm 0.00 W/m2
20:54 31.0 °C 27.0 °C 1009.0 hPa South 8 km/h 12 km/h 80% 0.00 mm 0.00 W/m2
20:59 31.0 °C 27.0 °C 1008.9 hPa SSE 13 km/h 16 km/h 80% 0.00 mm 0.00 W/m2
21:04 31.0 °C 27.0 °C 1009.0 hPa South 10 km/h 16 km/h 80% 0.00 mm 0.00 W/m2
21:09 31.0 °C 27.0 °C 1009.0 hPa South 12 km/h 16 km/h 79% 0.00 mm 0.00 W/m2
21:14 31.0 °C 27.0 °C 1009.0 hPa SSE 10 km/h 12 km/h 79% 0.00 mm 0.00 W/m2
21:19 31.0 °C 27.0 °C 1009.1 hPa SSE 9 km/h 12 km/h 80% 0.00 mm 0.00 W/m2
21:24 31.0 °C 27.0 °C 1009.1 hPa South 9 km/h 12 km/h 81% 0.00 mm 0.00 W/m2
21:29 31.0 °C 27.0 °C 1009.3 hPa Calm     81% 0.00 mm 0.00 W/m2
21:34 31.0 °C 28.0 °C 1009.2 hPa Calm     81% 0.00 mm 0.00 W/m2
21:39 31.0 °C 27.0 °C 1009.5 hPa South 5 km/h 8 km/h 81% 0.00 mm 0.00 W/m2
21:44 31.0 °C 27.0 °C 1009.5 hPa SSW 3 km/h 8 km/h 81% 0.00 mm 0.00 W/m2
21:49 31.0 °C 27.0 °C 1009.7 hPa South 8 km/h 8 km/h 80% 0.00 mm 0.00 W/m2
21:54 31.0 °C 27.0 °C 1009.7 hPa South 9 km/h 12 km/h 80% 0.00 mm 0.00 W/m2
21:59 31.0 °C 27.0 °C 1009.5 hPa SSE 8 km/h 8 km/h 80% 0.00 mm 0.00 W/m2
22:04 31.0 °C 27.0 °C 1009.5 hPa SSE 5 km/h 8 km/h 80% 0.00 mm 0.00 W/m2
22:09 31.0 °C 27.0 °C 1009.4 hPa SSE 4 km/h 4 km/h 80% 0.00 mm 0.00 W/m2
22:14 31.0 °C 27.0 °C 1009.5 hPa SSE 9 km/h 12 km/h 80% 0.00 mm 0.00 W/m2
22:19 31.0 °C 27.0 °C 1009.5 hPa South 4 km/h 8 km/h 80% 0.00 mm 0.00 W/m2
22:24 31.0 °C 27.0 °C 1009.5 hPa SSE 4 km/h 8 km/h 80% 0.00 mm 0.00 W/m2
22:29 31.0 °C 27.0 °C 1009.5 hPa Calm     80% 0.00 mm 0.00 W/m2
22:34 31.0 °C 27.0 °C 1009.3 hPa South 4 km/h 8 km/h 80% 0.00 mm 0.00 W/m2
22:39 31.0 °C 27.0 °C 1009.4 hPa South 6 km/h 8 km/h 81% 0.00 mm 0.00 W/m2
22:44 31.0 °C 27.0 °C 1009.4 hPa SSE 5 km/h 8 km/h 81% 0.00 mm 0.00 W/m2
22:49 31.0 °C 27.0 °C 1009.5 hPa SSE 5 km/h 8 km/h 81% 0.00 mm 0.00 W/m2
22:54 31.0 °C 27.0 °C 1009.3 hPa SE 7 km/h 12 km/h 81% 0.00 mm 0.00 W/m2
22:59 31.0 °C 27.0 °C 1009.3 hPa Calm     81% 0.00 mm 0.00 W/m2
23:04 31.0 °C 27.0 °C 1009.3 hPa SSE 5 km/h 8 km/h 80% 0.00 mm 0.00 W/m2
23:09 31.0 °C 27.0 °C 1009.3 hPa SE 6 km/h 8 km/h 81% 0.00 mm 0.00 W/m2
23:14 31.0 °C 27.0 °C 1009.4 hPa SSE 2 km/h 4 km/h 81% 0.00 mm 0.00 W/m2
23:19 31.0 °C 27.0 °C 1009.4 hPa Calm     81% 0.00 mm 0.00 W/m2
23:24 31.0 °C 27.0 °C 1009.3 hPa NNE 1 km/h 4 km/h 81% 0.00 mm 0.00 W/m2
23:29 30.0 °C 27.0 °C 1009.5 hPa NNE 14 km/h 16 km/h 82% 0.00 mm 0.00 W/m2
23:34 30.0 °C 26.0 °C 1009.5 hPa NNE 12 km/h 16 km/h 84% 0.00 mm 0.00 W/m2
23:39 29.0 °C 26.0 °C 1009.1 hPa NE 3 km/h 8 km/h 84% 0.00 mm 0.00 W/m2
23:44 30.0 °C 26.0 °C 1009.1 hPa ENE 5 km/h 8 km/h 83% 0.00 mm 0.00 W/m2
23:49 29.0 °C 26.0 °C 1009.1 hPa NNE 5 km/h 8 km/h 83% 0.00 mm 0.00 W/m2
23:54 29.0 °C 26.0 °C 1009.3 hPa NNE 4 km/h 8 km/h 84% 0.00 mm 0.00 W/m2
23:59 29.0 °C 26.0 °C 1009.2 hPa North 5 km/h 8 km/h 84% 0.00 mm 0.00 W/m2
PIMOHWEATHER Philippines
Compliments of Weather Underground - 2 mb